TimeCST,TemperatureF,Dew PointF,Humidity,Sea Level PressureIn,VisibilityMPH,Wind Direction,Wind SpeedMPH,Gust SpeedMPH,PrecipitationIn,Events,Conditions,WindDirDegrees,DateUTC
12:15 AM,35.6,28.4,75,30.19,10.0,South,9.2,-,N/A,,Scattered Clouds,170,2012-12-06 06:15:00
12:35 AM,35.6,28.4,75,30.19,10.0,South,10.4,-,N/A,,Mostly Cloudy,180,2012-12-06 06:35:00
12:55 AM,35.6,28.4,75,30.19,10.0,South,9.2,-,N/A,,Overcast,180,2012-12-06 06:55:00
1:15 AM,35.6,28.4,75,30.18,10.0,South,6.9,-,N/A,,Overcast,180,2012-12-06 07:15:00
1:35 AM,35.6,28.4,75,30.17,10.0,South,9.2,-,N/A,,Overcast,170,2012-12-06 07:35:00
1:55 AM,37.4,30.2,75,30.16,10.0,South,10.4,-,N/A,,Overcast,170,2012-12-06 07:55:00
2:15 AM,37.4,30.2,75,30.16,10.0,South,10.4,-,N/A,,Mostly Cloudy,190,2012-12-06 08:15:00
2:35 AM,37.4,30.2,75,30.15,10.0,South,10.4,-,N/A,,Mostly Cloudy,180,2012-12-06 08:35:00
2:55 AM,37.4,30.2,75,30.14,10.0,South,11.5,-,N/A,,Mostly Cloudy,180,2012-12-06 08:55:00
3:15 AM,37.4,30.2,75,30.13,10.0,South,11.5,16.1,N/A,,Scattered Clouds,180,2012-12-06 09:15:00
3:35 AM,37.4,30.2,75,30.12,10.0,South,10.4,-,N/A,,Scattered Clouds,190,2012-12-06 09:35:00
3:55 AM,35.6,30.2,81,30.12,10.0,South,10.4,-,N/A,,Mostly Cloudy,180,2012-12-06 09:55:00
4:15 AM,37.4,30.2,75,30.11,10.0,South,12.7,-,N/A,,Overcast,180,2012-12-06 10:15:00
4:35 AM,37.4,30.2,75,30.10,10.0,South,10.4,-,N/A,,Overcast,180,2012-12-06 10:35:00
4:55 AM,37.4,30.2,75,30.09,10.0,South,13.8,-,N/A,,Mostly Cloudy,170,2012-12-06 10:55:00
5:15 AM,37.4,30.2,75,30.08,10.0,South,12.7,-,N/A,,Mostly Cloudy,170,2012-12-06 11:15:00
5:35 AM,37.4,32.0,81,30.07,10.0,South,13.8,-,N/A,,Mostly Cloudy,170,2012-12-06 11:35:00
5:55 AM,39.2,32.0,75,30.07,10.0,South,16.1,-,N/A,,Overcast,170,2012-12-06 11:55:00
6:15 AM,39.2,33.8,81,30.07,10.0,South,17.3,24.2,N/A,,Overcast,170,2012-12-06 12:15:00
6:35 AM,39.2,33.8,81,30.07,10.0,South,15.0,-,N/A,,Mostly Cloudy,180,2012-12-06 12:35:00
6:55 AM,39.2,32.0,75,30.05,10.0,SSE,23.0,27.6,N/A,,Overcast,160,2012-12-06 12:55:00
7:15 AM,39.2,33.8,81,30.05,10.0,South,19.6,24.2,N/A,,Overcast,170,2012-12-06 13:15:00
7:35 AM,39.2,33.8,81,30.06,10.0,South,20.7,24.2,N/A,,Mostly Cloudy,170,2012-12-06 13:35:00
7:55 AM,39.2,33.8,81,30.04,10.0,South,18.4,27.6,N/A,,Overcast,170,2012-12-06 13:55:00
8:15 AM,39.2,33.8,81,30.04,10.0,South,17.3,23.0,N/A,,Overcast,180,2012-12-06 14:15:00
8:35 AM,39.2,33.8,81,30.03,10.0,South,17.3,-,N/A,,Overcast,170,2012-12-06 14:35:00
8:55 AM,39.2,33.8,81,30.01,10.0,SSE,19.6,-,N/A,,Overcast,160,2012-12-06 14:55:00
9:15 AM,39.2,33.8,81,29.99,8.0,SSE,21.9,32.2,N/A,,Overcast,160,2012-12-06 15:15:00
9:35 AM,39.2,33.8,81,29.99,10.0,SSE,23.0,33.4,N/A,,Overcast,160,2012-12-06 15:35:00
9:55 AM,39.2,33.8,81,30.00,10.0,South,20.7,28.8,N/A,,Overcast,170,2012-12-06 15:55:00
10:15 AM,39.2,33.8,81,30.00,10.0,South,19.6,28.8,N/A,,Overcast,170,2012-12-06 16:15:00
10:35 AM,39.2,32.0,75,29.98,10.0,South,15.0,-,N/A,,Overcast,170,2012-12-06 16:35:00
10:55 AM,39.2,32.0,75,29.97,10.0,South,13.8,-,N/A,,Mostly Cloudy,170,2012-12-06 16:55:00
11:15 AM,39.2,30.2,70,29.97,10.0,South,12.7,20.7,N/A,,Overcast,190,2012-12-06 17:15:00
11:35 AM,39.2,30.2,70,29.95,10.0,South,16.1,-,N/A,,Overcast,170,2012-12-06 17:35:00
11:55 AM,39.2,30.2,70,29.93,10.0,South,15.0,-,N/A,,Overcast,170,2012-12-06 17:55:00
12:15 PM,39.2,30.2,70,29.93,10.0,South,13.8,23.0,N/A,,Overcast,180,2012-12-06 18:15:00
12:35 PM,39.2,30.2,70,29.91,10.0,South,13.8,-,N/A,,Overcast,180,2012-12-06 18:35:00
12:55 PM,39.2,30.2,70,29.89,10.0,South,11.5,20.7,N/A,,Overcast,180,2012-12-06 18:55:00
1:15 PM,39.2,30.2,70,29.88,10.0,South,11.5,-,N/A,,Overcast,170,2012-12-06 19:15:00
1:35 PM,39.2,30.2,70,29.86,10.0,SSE,12.7,-,N/A,,Overcast,160,2012-12-06 19:35:00
1:55 PM,39.2,30.2,70,29.85,10.0,South,12.7,-,N/A,,Overcast,170,2012-12-06 19:55:00
2:15 PM,41.0,30.2,65,29.84,10.0,SSE,12.7,20.7,N/A,,Overcast,160,2012-12-06 20:15:00
2:35 PM,41.0,32.0,70,29.83,10.0,South,13.8,-,N/A,,Overcast,170,2012-12-06 20:35:00
2:55 PM,41.0,32.0,70,29.86,10.0,SW,8.1,-,N/A,,Mostly Cloudy,220,2012-12-06 20:55:00
3:15 PM,41.0,30.2,65,29.86,10.0,South,5.8,-,N/A,,Partly Cloudy,190,2012-12-06 21:15:00
3:35 PM,42.8,30.2,61,29.86,10.0,SSW,5.8,-,N/A,,Clear,200,2012-12-06 21:35:00
3:55 PM,41.0,30.2,65,29.86,10.0,South,5.8,-,N/A,,Clear,180,2012-12-06 21:55:00
4:15 PM,41.0,30.2,65,29.85,10.0,SSE,6.9,-,N/A,,Clear,160,2012-12-06 22:15:00
4:35 PM,41.0,30.2,65,29.85,10.0,South,8.1,-,N/A,,Clear,180,2012-12-06 22:35:00
4:55 PM,41.0,30.2,65,29.85,10.0,South,9.2,-,N/A,,Partly Cloudy,170,2012-12-06 22:55:00
5:15 PM,41.0,32.0,70,29.85,10.0,South,8.1,-,N/A,,Mostly Cloudy,190,2012-12-06 23:15:00
5:35 PM,42.8,32.0,66,29.84,10.0,South,9.2,-,N/A,,Overcast,180,2012-12-06 23:35:00
5:55 PM,42.8,32.0,66,29.85,10.0,SSW,9.2,-,N/A,,Overcast,200,2012-12-06 23:55:00
6:15 PM,42.8,33.8,70,29.85,10.0,SSW,6.9,-,N/A,,Overcast,210,2012-12-07 00:15:00